[[{"header":{"parameterUnit":"m.s-1","parameterCategory":1,"la1":30.2991,"la2":30.254,"lo1":-89.0895,"lo2":-89.0444,"dy":0.0017,"dx":0.0017,"nx":28,"ny":28,"refTime":"2024-08-21T09:00:00:Z","depth":0,"parameterNumber":2,"parameterNumberName":"U-component_of_WINDS"},"data":[0,0,0,0,0,0,0,0,0,0,0,0,0,0,0,0,0,0,0,0,0,0,0,0,0,0,0,0,0,0,0,0,0,0,0,0,0,0,0,0,0,0,0,0,0,0,0,0,0,0,0,0,0,0,0,0,0,0,-2.2245,-2.2247,0,-2.2354,-2.2355,-2.2356,-2.2389,-2.2388,-2.2387,-2.2387,-2.2498,-2.2501,-2.2504,0,0,0,0,0,0,0,0,0,0,0,0,0,-2.2064,-2.2067,-2.2245,-2.2247,-2.2248,-2.2354,-2.2355,-2.2357,-2.2389,-2.2388,-2.2387,-2.2387,-2.2496,-2.2501,-2.2505,0,0,0,0,0,0,0,0,0,0,0,0,0,-2.2154,-2.2068,-2.2245,-2.2277,-2.2281,-2.2353,-2.2355,-2.2357,-2.2389,-2.2388,-2.2387,-2.2386,-2.2495,-2.25,-2.2505,-2.2554,0,0,-2.2521,-2.2523,0,0,0,0,0,0,0,0,-2.2149,-2.2161,-2.2271,-2.2275,-2.2279,-2.2357,-2.2332,-2.2423,-2.2389,-2.2348,-2.2387,-2.2386,-2.2451,-2.246,-2.2482,-2.2559,-2.2564,-2.2522,-2.2525,-2.2527,-2.2528,0,0,0,0,0,0,0,-2.2143,-2.2156,-2.2288,-2.2272,-2.2278,-2.2285,-2.2297,-2.2349,-2.2403,-2.2351,-2.2354,-2.2366,-2.2454,-2.2477,-2.2485,-2.2566,-2.2521,-2.2526,-2.2529,-2.2531,-2.2684,-2.2685,0,0,0,0,0,0,-2.2131,-2.2151,-2.2285,-2.2292,-2.2211,-2.2289,-2.2302,-2.2333,-2.2402,-2.2412,-2.2367,-2.2367,-2.2469,-2.2479,-2.2489,-2.2549,-2.2527,-2.2532,-2.2535,-2.2683,-2.2685,-2.2686,0,0,0,0,0,0,-2.2127,-2.2143,-2.228,-2.2222,-2.224,-2.2293,-2.2327,-2.2335,-2.2359,-2.2414,-2.2424,-2.2381,-2.2468,-2.2482,-2.2537,-2.2553,-2.2534,-2.2539,-2.2682,-2.2684,-2.2685,-2.267,0,0,0,0,0,0,-2.2122,-2.2141,-2.2161,-2.2222,-2.2243,-2.2327,-2.2328,-2.2338,-2.2368,-2.237,-2.243,-2.244,-2.2469,-2.2529,-2.2542,-2.256,-2.2543,-2.2681,-2.2683,-2.2685,-2.2669,-2.267,-2.2672,0,0,0,0,0,-2.2115,-2.2153,-2.2162,-2.2178,-2.2269,-2.2328,-2.234,-2.2373,-2.2369,-2.2389,-2.2424,-2.2438,-2.2549,-2.2534,-2.2549,-2.2569,-2.268,-2.2682,-2.2684,-2.2668,-2.267,-2.2672,0,0,0,0,0,0,-2.2094,-2.2162,-2.2173,-2.2232,-2.2274,-2.2334,-2.236,-2.2374,-2.2419,-2.2418,-2.2457,-2.247,-2.2522,-2.2551,-2.2534,-2.2618,-2.2615,-2.262,-2.2598,-2.26,-2.2601,-2.2593,-2.2547,0,0,0,0,0,-2.2096,-2.2138,-2.2196,-2.2242,-2.2262,-2.2307,-2.2334,-2.2356,-2.2401,-2.2419,-2.2458,-2.2501,-2.2545,-2.2574,-2.2618,-2.2673,-2.2685,-2.2694,-2.2695,-2.2696,-2.27,-2.2728,-2.2732,-2.2693,-2.2693,-2.2693,0,0,-2.2101,-2.2143,-2.2168,-2.2239,-2.2274,-2.2316,-2.2322,-2.2367,-2.2399,-2.2426,-2.248,-2.251,-2.256,-2.2614,-2.264,-2.264,-2.2713,-2.2698,-2.2699,-2.2702,-2.2731,-2.2734,-2.2738,-2.2694,-2.2694,-2.2694,0,0,-2.2131,-2.2168,-2.2209,-2.2244,-2.2296,-2.2325,-2.2335,-2.2392,-2.2413,-2.2467,-2.2488,-2.2525,-2.2602,-2.2636,-2.2663,-2.2702,-2.2716,-2.2715,-2.2722,-2.275,-2.2753,-2.2756,-2.2768,-2.2772,-2.2719,-2.2719,-2.2719,0,-2.213,-2.2195,-2.2229,-2.2272,-2.2302,-2.2327,-2.2368,-2.24,-2.2464,-2.2484,-2.2482,-2.2577,-2.2613,-2.2674,-2.2683,-2.2705,-2.2716,-2.2709,-2.275,-2.2753,-2.2756,-2.2768,-2.2773,-2.2719,-2.2719,-2.2719,-2.2719,0,-2.2191,-2.2235,-2.2262,-2.2322,-2.2355,-2.2397,-2.2436,-2.2464,-2.2482,-2.251,-2.2564,-2.2607,-2.266,-2.2676,-2.2694,-2.2739,-2.2737,-2.2742,-2.274,-2.2759,-2.2771,-2.2776,-2.2718,-2.2718,-2.2718,-2.2719,0,0,-2.2212,-2.2288,-2.2298,-2.2324,-2.2383,-2.2417,-2.2459,-2.251,-2.2532,-2.2575,-2.261,-2.2673,-2.2677,-2.2708,-2.273,-2.2754,-2.2779,-2.2756,-2.2758,-2.2758,-2.2829,-2.2824,-2.2829,-2.2788,-2.2789,-2.279,-2.2824,0,-2.2249,-2.2325,-2.2355,-2.2417,-2.2457,-2.248,-2.2516,-2.2555,-2.2582,-2.2619,-2.2649,-2.2692,-2.2695,-2.2714,-2.2738,-2.2771,-2.2794,-2.2769,-2.282,-2.2822,-2.2807,-2.2836,-2.2832,-2.2862,-2.2829,-2.283,-2.2831,0,-2.2303,-2.2344,-2.241,-2.246,-2.2478,-2.2511,-2.2558,-2.2593,-2.2637,-2.2655,-2.2687,-2.2707,-2.275,-2.2744,-2.2803,-2.2786,-2.2808,-2.2827,-2.2829,-2.2835,-2.2827,-2.2842,-2.2873,-2.2877,-2.2839,-2.2838,-2.2838,0,-2.231,-2.2382,-2.243,-2.2452,-2.2513,-2.2535,-2.2561,-2.2604,-2.2631,-2.2672,-2.269,-2.2735,-2.276,-2.2794,-2.2825,-2.2818,-2.288,-2.2877,-2.2895,-2.2894,-2.2907,-2.2906,-2.2941,-2.2922,-2.2922,-2.2922,-2.2922,0,-2.2347,-2.2386,-2.2434,-2.2463,-2.2507,-2.254,-2.2581,-2.2609,-2.2646,-2.268,-2.2703,-2.2735,-2.2774,-2.2809,-2.2834,-2.2877,-2.2889,-2.2903,-2.2909,-2.2901,-2.2899,-2.2917,-2.2915,-2.2923,-2.2923,-2.2923,-2.2923,0,-2.2363,-2.2397,-2.245,-2.2503,-2.2516,-2.2546,-2.259,-2.2619,-2.2646,-2.2688,-2.27,-2.2742,-2.2786,-2.2819,-2.2876,-2.2892,-2.2938,-2.2945,-2.2923,-2.2926,-2.2941,-2.2939,-2.2989,-2.2997,-2.2973,-2.2973,-2.2973,0,-2.2385,-2.2415,-2.2469,-2.2494,-2.2519,-2.2559,-2.2586,-2.2619,-2.2646,-2.2696,-2.2718,-2.2763,-2.28,-2.2868,-2.2903,-2.2946,-2.2953,-2.2968,-2.296,-2.295,-2.2952,-2.295,-2.2952,-2.2969,-2.2969,-2.2969,-2.2969,0,-2.2419,-2.2433,-2.2472,-2.2516,-2.2548,-2.2584,-2.2621,-2.2639,-2.2678,-2.2707,-2.2751,-2.278,-2.2837,-2.288,-2.2926,-2.2952,-2.2966,-2.2971,-2.2977,-2.2969,-2.2955,-2.2961,-2.2925,-2.297,-2.297,-2.297,-2.2969,-2.2969,-2.2437,-2.2464,-2.2506,-2.2548,-2.2578,-2.2611,-2.264,-2.2669,-2.2707,-2.2755,-2.2772,-2.2817,-2.2857,-2.2919,-2.2945,-2.298,-2.2981,-2.299,-2.2993,-2.2994,-2.2993,-2.2949,-2.2989,-2.2989,-2.2989,-2.2989,-2.2989,0,-2.2471,-2.2499,-2.2537,-2.2586,-2.2619,-2.2629,-2.2669,-2.2695,-2.2734,-2.277,-2.2806,-2.2855,-2.2896,-2.2934,-2.2977,-2.2997,-2.3004,-2.3007,-2.3006,-2.3011,-2.299,-2.298,-2.3,-2.3,-2.3,-2.3,-2.3,-2.3,-2.2493,-2.2538,-2.2557,-2.2617,-2.2644,-2.2688,-2.2709,-2.2739,-2.2768,-2.2822,-2.2856,-2.288,-2.2916,-2.2961,-2.2999,-2.3008,-2.3023,-2.3023,-2.3035,-2.3014,-2.3013,-2.3011,-2.3002,-2.3026,-2.3026,-2.3053,-2.3053,-2.3053]},{"header":{"parameterUnit":"m.s-1","parameterCategory":1,"la1":30.2991,"la2":30.254,"lo1":-89.0895,"lo2":-89.0444,"dy":0.0017,"dx":0.0017,"nx":28,"ny":28,"refTime":"2024-08-21T09:00:00:Z","depth":0,"parameterNumber":3,"parameterNumberName":"V-component_of_WINDS"},"data":[0,0,0,0,0,0,0,0,0,0,0,0,0,0,0,0,0,0,0,0,0,0,0,0,0,0,0,0,0,0,0,0,0,0,0,0,0,0,0,0,0,0,0,0,0,0,0,0,0,0,0,0,0,0,0,0,0,0,0.2221,0.2219,0,0.2032,0.203,0.2027,0.1935,0.1935,0.1935,0.1936,0.1739,0.1734,0.1729,0,0,0,0,0,0,0,0,0,0,0,0,0,0.2502,0.2497,0.2221,0.2219,0.2216,0.2032,0.2029,0.2027,0.1935,0.1935,0.1936,0.1936,0.1741,0.1734,0.1728,0,0,0,0,0,0,0,0,0,0,0,0,0,0.2353,0.2496,0.2222,0.2149,0.214,0.2033,0.2029,0.2026,0.1935,0.1935,0.1936,0.1936,0.1743,0.1735,0.1727,0.1677,0,0,0.1703,0.17,0,0,0,0,0,0,0,0,0.2362,0.2343,0.2162,0.2154,0.2144,0.2007,0.2056,0.1909,0.1935,0.2013,0.1936,0.1936,0.1828,0.1813,0.1777,0.1668,0.1659,0.1702,0.1698,0.1694,0.1692,0,0,0,0,0,0,0,0.2372,0.235,0.2146,0.2159,0.2148,0.2125,0.2104,0.2028,0.1922,0.2006,0.1999,0.1978,0.1823,0.1785,0.1772,0.1656,0.1703,0.1696,0.1691,0.1688,0.1497,0.1496,0,0,0,0,0,0,0.2395,0.236,0.2152,0.214,0.2255,0.212,0.2096,0.2051,0.1923,0.1904,0.1978,0.1975,0.1799,0.1781,0.1765,0.1697,0.1694,0.1687,0.1682,0.1497,0.1497,0.1496,0,0,0,0,0,0,0.2401,0.2377,0.216,0.2248,0.2219,0.2115,0.2065,0.2047,0.2009,0.1902,0.1882,0.1959,0.1798,0.1776,0.17,0.1689,0.1683,0.1676,0.1497,0.1497,0.1497,0.1563,0,0,0,0,0,0,0.2409,0.238,0.236,0.2248,0.2214,0.2099,0.2064,0.2044,0.1996,0.1989,0.1879,0.186,0.1796,0.1712,0.1692,0.1678,0.167,0.1498,0.1497,0.1497,0.1561,0.1564,0.1568,0,0,0,0,0,0.242,0.2385,0.2359,0.2335,0.2187,0.2098,0.2079,0.2006,0.1996,0.1974,0.1906,0.1864,0.1694,0.1705,0.1682,0.1665,0.1498,0.1497,0.1497,0.1559,0.1564,0.1567,0,0,0,0,0,0,0.2497,0.2369,0.2339,0.2268,0.2195,0.2083,0.2054,0.2013,0.1941,0.1938,0.1851,0.1827,0.1758,0.1704,0.1719,0.161,0.1592,0.1587,0.1648,0.1651,0.1654,0.1668,0.1663,0,0,0,0,0,0.2506,0.2445,0.2336,0.2284,0.2249,0.2158,0.2116,0.2068,0.1988,0.1956,0.1882,0.1806,0.1735,0.169,0.1619,0.1553,0.1528,0.1531,0.1534,0.1537,0.1533,0.1494,0.1494,0.1494,0.1494,0.1494,0,0,0.2523,0.2446,0.2412,0.2297,0.2235,0.2173,0.2132,0.2068,0.2021,0.1946,0.187,0.1813,0.1722,0.1651,0.1616,0.1604,0.1528,0.1536,0.154,0.1533,0.1494,0.1494,0.1494,0.1494,0.1494,0.1494,0,0,0.2522,0.2459,0.2408,0.2347,0.2253,0.2193,0.2182,0.2076,0.2036,0.1958,0.1901,0.1844,0.1724,0.1662,0.1615,0.1593,0.1552,0.1573,0.1589,0.1553,0.1553,0.1552,0.1544,0.1542,0.1569,0.157,0.157,0,0.2555,0.246,0.2386,0.2326,0.2277,0.2208,0.2156,0.21,0.1988,0.1956,0.1944,0.1793,0.1727,0.1641,0.1636,0.16,0.1583,0.1584,0.1559,0.1558,0.1556,0.1547,0.1545,0.1573,0.1572,0.1572,0.1572,0,0.2505,0.2441,0.2411,0.2306,0.2254,0.2198,0.2115,0.2071,0.2028,0.1969,0.1891,0.181,0.1722,0.1698,0.1654,0.1606,0.1601,0.1576,0.1555,0.156,0.1551,0.1547,0.1577,0.1576,0.1575,0.1574,0,0,0.2546,0.2402,0.2392,0.2344,0.2237,0.2185,0.2127,0.2042,0.2006,0.1932,0.188,0.1781,0.1757,0.1704,0.1653,0.1621,0.1609,0.1599,0.1595,0.1603,0.155,0.1569,0.1566,0.1582,0.1581,0.158,0.1557,0,0.253,0.2422,0.2354,0.2273,0.2212,0.2147,0.2096,0.2024,0.1969,0.1909,0.1847,0.1778,0.1752,0.172,0.1685,0.1618,0.1597,0.1619,0.1532,0.1529,0.1555,0.1561,0.158,0.1563,0.1553,0.1552,0.1552,0,0.2496,0.2425,0.2338,0.2239,0.2211,0.2166,0.2083,0.2027,0.1945,0.1907,0.1849,0.1797,0.1732,0.172,0.1629,0.1645,0.1606,0.1568,0.1565,0.1553,0.154,0.1548,0.1555,0.1553,0.1545,0.1546,0.1546,0,0.2533,0.2416,0.2349,0.231,0.2192,0.2163,0.2112,0.2031,0.1984,0.1912,0.1881,0.1802,0.1758,0.1698,0.1627,0.1624,0.1543,0.1524,0.1509,0.1511,0.1493,0.1495,0.1493,0.1471,0.1471,0.1471,0.1471,0,0.2522,0.2471,0.2364,0.2323,0.2264,0.2188,0.2132,0.2076,0.2004,0.1951,0.189,0.184,0.175,0.169,0.1634,0.1567,0.1548,0.1515,0.1501,0.152,0.1524,0.1491,0.149,0.147,0.147,0.147,0.147,0,0.2553,0.2479,0.2402,0.2298,0.2271,0.2232,0.2143,0.21,0.2042,0.1975,0.1955,0.1864,0.179,0.1714,0.1614,0.1576,0.1511,0.1492,0.1539,0.153,0.1519,0.1521,0.1495,0.1488,0.1472,0.1473,0.1473,0,0.255,0.2509,0.2402,0.2362,0.2313,0.225,0.2203,0.2126,0.2079,0.1984,0.1953,0.1875,0.1808,0.1693,0.1618,0.1541,0.1518,0.1515,0.1506,0.1527,0.1517,0.152,0.1515,0.1517,0.1518,0.1518,0.1519,0,0.2551,0.2517,0.2452,0.2374,0.232,0.2255,0.2187,0.2158,0.2069,0.2019,0.1944,0.1892,0.1791,0.1714,0.1628,0.1576,0.1532,0.1523,0.1515,0.1533,0.1562,0.1545,0.1546,0.1523,0.1523,0.1522,0.1522,0.1522,0.2564,0.2525,0.2444,0.2373,0.2315,0.2254,0.2209,0.2146,0.2082,0.1994,0.1953,0.1877,0.1797,0.1678,0.1627,0.1566,0.1554,0.1543,0.1539,0.1538,0.1542,0.1573,0.155,0.155,0.155,0.155,0.1549,0,0.2562,0.2507,0.2443,0.2351,0.2296,0.2262,0.2186,0.2141,0.2076,0.2005,0.1941,0.1855,0.178,0.17,0.1621,0.1588,0.1566,0.1569,0.157,0.1559,0.1558,0.1572,0.1588,0.1588,0.1588,0.1588,0.1588,0.1588,0.2554,0.2487,0.2444,0.2347,0.2292,0.2218,0.2178,0.2121,0.2064,0.1971,0.1909,0.1858,0.1783,0.1698,0.1628,0.1606,0.1579,0.1589,0.1561,0.1562,0.1559,0.1556,0.1569,0.1584,0.1584,0.1567,0.1566,0.1566]}]]